FW0979 Weather Reports


Display with metric or nautical units.
time (UTC)temp
F
wind
direction
speed
MPH
gust
MPH
rain 1hr
in
rain 24hr
in
rain mn
in
humidity
%
barometer
mb
20260510234536 64 48 16.0 26.0 0.00 0.00 0.00 63 1014.4
20260510233042 64 84 15.0 28.0 0.00 0.00 0.00 63 1014.1
20260510231534 65 86 16.0 26.0 0.00 0.00 0.00 61 1013.9
20260510230032 65 77 17.0 29.0 0.00 0.00 0.00 61 1013.9
20260510224536 66 37 20.0 31.0 0.00 0.00 0.00 61 1013.0
20260510223029 64 360 17.0 29.0 0.00 0.00 0.00 63 1013.4
20260510221527 65 49 15.0 25.0 0.00 0.00 0.00 64 1013.3
20260510220029 66 41 18.0 25.0 0.00 0.00 0.00 62 1013.0
20260510214525 68 51 19.0 30.0 0.00 0.00 0.00 61 1012.9
20260510213039 68 360 18.0 28.0 0.00 0.00 0.00 59 1012.9
20260510211527 69 360 17.0 25.0 0.00 0.00 0.00 59 1012.4
20260510210039 69 360 17.0 32.0 0.00 0.00 0.00 59 1012.3
20260510204524 69 360 20.0 31.0 0.00 0.00 0.00 59 1012.2
20260510203021 69 360 18.0 27.0 0.00 0.00 0.00 59 1011.8
20260510201518 68 360 19.0 31.0 0.00 0.00 0.00 62 1011.4
20260510200016 67 360 18.0 32.0 0.00 0.00 0.00 66 1012.2
20260510194514 64 360 22.0 35.0 0.00 0.00 0.00 70 1011.8
20260510193011 65 360 22.0 35.0 0.00 0.00 0.00 67 1011.5
20260510191508 67 360 22.0 35.0 0.00 0.00 0.00 64 1011.5
20260510190006 67 20 25.0 39.0 0.00 0.00 0.00 65 1011.2
20260510184505 68 360 24.0 37.0 0.00 0.00 0.00 64 1010.4
20260510183004 68 360 22.0 39.0 0.00 0.00 0.00 63 1010.3
20260510181503 66 38 27.0 40.0 0.00 0.00 0.00 65 1009.2
20260510180110 68 32 23.0 33.0 0.00 0.00 0.00 60 1011.2
20260510174601 73 356 21.0 30.0 0.00 0.00 0.00 52 1010.8
20260510173056 74 21 20.0 31.0 0.00 0.00 0.00 52 1010.3
20260510171553 74 6 18.0 30.0 0.00 0.00 0.00 53 1010.3
20260510170050 74 360 23.0 34.0 0.00 0.00 0.00 53 1009.6
20260510164549 74 12 22.0 30.0 0.00 0.00 0.00 52 1009.1
20260510163052 73 13 19.0 28.0 0.00 0.00 0.00 52 1008.9
20260510161541 72 8 17.0 26.0 0.00 0.00 0.00 53 1008.6
20260510160041 72 360 20.0 28.0 0.00 0.00 0.00 53 1008.2
20260510154536 71 19 15.0 26.0 0.00 0.00 0.00 54 1007.8
20260510153034 71 3 16.0 25.0 0.00 0.00 0.00 54 1007.7
20260510151531 71 4 15.0 24.0 0.00 0.00 0.00 53 1007.7
20260510150030 71 29 16.0 24.0 0.00 0.00 0.00 54 1007.3
20260510144529 70 347 15.0 21.0 0.00 0.00 0.00 54 1007.1
20260510143025 70 359 12.0 19.0 0.00 0.00 0.00 52 1006.9
20260510141527 69 360 9.0 14.0 0.00 0.00 0.00 44 1007.0
20260510140020 67 325 3.0 5.0 0.00 0.00 0.00 44 1006.5
20260510134520 67 321 5.0 10.0 0.00 0.00 0.00 47 1006.2
20260510133018 68 342 9.0 16.0 0.00 0.00 0.00 56 1006.3
20260510131513 64 283 3.0 7.0 0.00 0.00 0.00 57 1005.2
20260510130011 61 302 2.0 6.0 0.00 0.00 0.00 59 1005.0
20260510124508 61 302 3.0 5.0 0.00 0.00 0.00 58 1005.1
20260510123005 61 303 2.0 6.0 0.00 0.00 0.00 57 1004.5
20260510121559 61 304 2.0 5.0 0.00 0.00 0.00 56 1004.2
20260510120056 61 360 3.0 5.0 0.00 0.00 0.00 55 1004.1
20260510114555 62 360 4.0 9.0 0.00 0.00 0.00 53 1003.9
20260510113045 64 244 4.0 10.0 0.00 0.00 0.00 53 1003.8
20260510111539 65 360 5.0 11.0 0.00 0.00 0.00 51 1003.7
20260510110036 65 221 4.0 12.0 0.00 0.00 0.00 50 1003.4
20260510104529 66 219 6.0 14.0 0.00 0.00 0.00 48 1003.2
20260510103025 66 208 5.0 13.0 0.00 0.00 0.00 45 1003.2
20260510101519 67 196 5.0 12.0 0.00 0.00 0.00 43 1003.2
20260510100017 67 205 6.0 14.0 0.00 0.00 0.00 42 1003.2
20260510094518 67 203 7.0 15.0 0.00 0.00 0.00 40 1003.0
20260510093005 68 229 6.0 12.0 0.00 0.00 0.00 38 1003.3
20260510091558 69 231 6.0 13.0 0.00 0.00 0.00 36 1003.3
20260510090053 70 203 7.0 16.0 0.00 0.00 0.00 35 1003.1
20260510084548 70 206 6.0 15.0 0.00 0.00 0.00 34 1003.0
20260510083046 71 198 9.0 15.0 0.00 0.00 0.00 33 1003.0
20260510081544 71 104 8.0 17.0 0.00 0.00 0.00 31 1002.8
20260510080037 71 209 9.0 17.0 0.00 0.00 0.00 30 1003.1
20260510074531 72 209 9.0 17.0 0.00 0.00 0.00 30 1003.4
20260510073027 72 202 9.0 18.0 0.00 0.00 0.00 29 1003.5
20260510071533 72 201 9.0 14.0 0.00 0.00 0.00 29 1003.8
20260510070016 73 212 6.0 13.0 0.00 0.00 0.00 29 1004.0
20260510064514 73 360 8.0 16.0 0.00 0.00 0.00 28 1004.0
20260510063010 73 209 8.0 16.0 0.00 0.00 0.00 28 1004.0
20260510061506 73 200 7.0 13.0 0.00 0.00 0.00 28 1004.1
20260510060001 73 360 8.0 16.0 0.00 0.00 0.00 27 1004.0
20260510054501 74 205 8.0 16.0 0.00 0.00 0.00 27 1004.0
20260510053100 74 192 7.0 13.0 0.00 0.00 0.00 26 1004.0
20260510051600 75 233 8.0 16.0 0.00 0.00 0.00 26 1004.0
20260510050101 74 217 7.0 17.0 0.00 0.00 0.00 24 1004.1
20260510044601 74 195 6.0 12.0 0.00 0.00 0.00 23 1004.1
20260510043059 75 203 5.0 10.0 0.00 0.00 0.00 20 1004.1
20260510041557 76 205 4.0 8.0 0.00 0.00 0.00 19 1003.9
20260510040101 77 200 4.0 8.0 0.00 0.00 0.00 18 1003.8
20260510034604 78 201 5.0 10.0 0.00 0.00 0.00 18 1003.7
20260510033114 78 178 5.0 10.0 0.00 0.00 0.00 17 1003.5
20260510031559 79 198 5.0 10.0 0.00 0.00 0.00 17 1003.3
20260510030054 80 181 5.0 9.0 0.00 0.00 0.00 16 1003.2
20260510024558 81 190 4.0 9.0 0.00 0.00 0.00 16 1003.0
20260510023053 83 179 4.0 7.0 0.00 0.00 0.00 15 1002.8
20260510021554 84 202 3.0 6.0 0.00 0.00 0.00 14 1002.5
20260510020053 86 207 3.0 7.0 0.00 0.00 0.00 13 1002.4
20260510014553 87 212 3.0 6.0 0.00 0.00 0.00 13 1002.2
20260510013054 89 214 3.0 8.0 0.00 0.00 0.00 12 1002.0
20260510011556 90 360 4.0 8.0 0.00 0.00 0.00 11 1002.0
20260510010051 91 229 5.0 8.0 0.00 0.00 0.00 11 1001.9
20260510004552 91 257 4.0 10.0 0.00 0.00 0.00 10 1002.0
20260510003109 91 264 5.0 13.0 0.00 0.00 0.00 10 1001.9
20260510001549 91 276 8.0 15.0 0.00 0.00 0.00 10 1002.1
20260510000048 92 277 9.0 14.0 0.00 0.00 0.00 10 1002.0